Temp
15 15 15 15 15 15 15 15 15 14 14 15 14 12 13 13 13 14 14 15 14 14 14 14 14 15 15 15 15 15 14 14 14 14 15 15 16 16 15 15 16 16 16 17 17 17 17 18 18 19 20 21 21 23 24 25 26 26 27 29 29 29
15 15 14 14 14 14 14 14 14 13 13 13 13 12 13 13 12 12 12 14 14 13 14 14 14 14 14 14 14 13 13 13 13 13 14 14 15 15 15 15 15 15 15 16 16 16 17 17 17 18 18 19 20 21 21 23 25 25 25 26 28 28
15 15 14 14 14 14 13 13 12 12 12 12 12 10 11 10 11 11 11 12 13 12 12 12 13 13 14 13 14 12 13 13 13 13 14 14 13 15 14 14 15 15 15 15 16 15 15 16 16 17 17 17 18 19 21 22 23 23 24 25 25 27
14 14 12 12 11 11 11 11 10 11 10 10 10 9 9 9 9 9 10 11 12 11 12 12 12 13 13 12 12 11 12 12 12 12 13 12 13 13 13 14 14 14 14 14 14 15 15 15 15 16 17 16 16 18 20 21 22 22 22 23 23 24
14 12 13 11 10 10 10 9 9 9 9 9 9 8 8 8 9 8 9 9 10 10 11 11 11 11 11 10 11 10 10 11 11 12 11 11 12 13 13 13 13 13 14 13 14 14 14 14 15 16 16 15 16 17 19 21 21 21 21 21 21 22
12 9 10 9 8 8 8 8 8 8 7 7 7 6 7 7 7 7 7 8 8 9 10 9 10 9 10 8 9 8 9 9 10 11 10 11 11 11 12 13 12 12 12 12 12 13 13 13 14 14 15 15 16 18 19 20 21 21 21 21 21 21
9 8 9 8 7 7 7 7 7 6 7 6 7 6 7 6 7 5 6 7 7 8 8 8 8 8 8 8 8 7 8 8 9 9 9 10 9 10 11 11 12 11 11 11 11 12 12 12 13 13 14 15 17 18 19 20 20 21 21 21 21 22
10 9 8 8 7 7 6 6 6 6 6 5 7 5 5 5 6 5 5 6 5 5 6 6 6 7 7 7 6 6 7 7 7 7 8 9 8 9 10 10 10 11 10 10 11 11 11 12 12 13 13 14 17 18 19 20 20 20 21 21 21 21
9 9 9 8 7 7 6 6 6 6 6 5 6 6 5 5 5 4 5 5 4 4 5 5 5 6 6 6 5 5 5 5 6 6 6 8 7 7 8 8 8 9 9 9 10 10 10 11 12 12 13 14 16 18 19 19 20 20 20 21 21 21
10 9 8 7 6 7 6 6 6 5 5 4 5 5 4 5 4 4 4 4 3 4 4 4 5 5 5 5 4 4 4 4 4 5 6 6 6 7 7 6 7 8 8 9 9 9 10 10 11 11 13 15 16 18 18 19 19 19 19 20 21 21
10 9 8 8 7 5 5 5 5 5 5 5 5 4 4 5 3 3 4 4 3 4 4 4 4 4 4 4 3 3 3 3 3 4 4 4 5 6 6 6 7 6 6 8 8 8 9 9 9 11 13 15 16 18 18 18 18 18 18 19 20 20
10 9 8 7 6 5 5 4 4 4 3 4 5 4 4 4 2 3 3 3 3 3 3 3 3 3 3 2 2 2 2 2 2 3 2 3 4 4 4 5 5 5 5 6 6 7 7 7 8 12 16 18 17 17 18 18 18 18 18 18 18 18
9 9 8 7 6 5 4 3 2 3 3 4 4 3 4 3 2 3 2 2 3 3 3 2 2 3 1 2 1 1 1 1 1 1 1 2 3 2 3 4 2 4 5 4 4 4 5 6 7 13 16 18 19 18 17 17 17 18 17 17 16 16
9 8 8 7 7 5 3 3 3 3 2 4 2 3 3 2 2 1 2 2 2 2 2 1 1 1 0 0 -0 -0 0 0 0 -0 1 1 1 1 2 1 2 3 2 3 3 3 4 5 9 13 15 17 18 19 17 17 17 17 16 16 16 16
10 9 8 7 6 4 3 4 3 3 4 3 3 3 2 2 1 1 1 1 1 1 1 0 -0 -0 -1 -1 -1 -1 -1 -1 -1 -1 -0 -1 0 1 -1 0 1 0 2 1 1 1 2 3 8 12 15 16 18 19 18 17 16 15 14 15 15 15
10 10 9 8 6 5 5 4 3 4 4 3 3 2 1 1 0 0 -0 0 0 0 -0 -0 -1 -2 -2 -2 -2 -2 -2 -2 -2 -1 -1 -1 -1 -1 -1 -1 -1 -0 -0 -0 -0 -0 1 2 6 12 14 15 17 18 19 16 15 14 14 14 15 15
10 9 7 5 4 4 3 3 3 3 2 2 1 1 -1 -1 -1 -2 -1 -1 -1 -1 -1 -2 -2 -3 -3 -3 -3 -3 -4 -3 -3 -2 -2 -2 -3 -3 -3 -2 -2 -2 -1 -1 -1 -1 -1 0 8 12 13 15 16 18 17 14 14 13 14 14 15 15
10 9 7 5 4 3 3 3 3 1 0 1 -1 -1 -1 -3 -4 -3 -3 -3 -3 -3 -2 -3 -4 -5 -5 -5 -5 -5 -5 -4 -4 -4 -3 -3 -3 -2 -2 -2 -2 -3 -2 -2 -2 -2 -2 -0 8 10 12 14 15 17 14 13 13 12 13 13 14 14
9 7 5 3 3 3 2 2 2 -1 -2 -4 -4 -4 -4 -4 -5 -5 -4 -5 -4 -4 -4 -4 -5 -6 -6 -6 -6 -7 -6 -5 -5 -5 -4 -5 -5 -5 -5 -4 -4 -3 -3 -3 -2 -2 -2 -1 4 10 11 13 15 14 12 12 12 12 11 12 13 13
5 4 3 2 1 2 1 1 -1 -3 -5 -5 -6 -6 -6 -7 -7 -6 -6 -6 -5 -5 -5 -5 -6 -7 -7 -7 -8 -7 -6 -6 -6 -6 -5 -7 -7 -6 -5 -5 -5 -4 -3 -3 -3 -2 -2 -2 3 8 11 12 14 14 11 11 11 10 11 11 12 13
2 1 -0 -1 -3 -3 -3 -3 -4 -6 -8 -7 -8 -8 -9 -8 -8 -7 -7 -6 -5 -6 -6 -6 -7 -7 -7 -8 -8 -7 -8 -8 -7 -7 -7 -7 -7 -7 -6 -6 -6 -6 -4 -3 -3 -1 -2 -2 0 6 9 12 13 13 12 11 11 9 10 11 11 14
-2 -7 -6 -5 -5 -6 -7 -8 -9 -9 -9 -10 -9 -10 -10 -9 -8 -7 -6 -6 -7 -7 -7 -7 -7 -7 -8 -8 -8 -8 -8 -8 -9 -9 -8 -8 -8 -9 -8 -7 -7 -7 -6 -4 -3 -3 -2 -2 -1 1 9 11 13 14 12 11 10 8 10 11 12 13
-4 -4 -5 -5 -9 -10 -11 -10 -12 -12 -12 -13 -12 -12 -10 -9 -8 -8 -8 -8 -8 -8 -8 -8 -8 -9 -9 -8 -9 -9 -10 -10 -10 -9 -10 -10 -10 -9 -9 -9 -8 -7 -7 -5 -4 -3 -2 -2 -2 -0 8 10 12 14 13 11 10 11 11 11 12 12
-10 -10 -11 -11 -12 -11 -13 -11 -12 -12 -15 -16 -14 -11 -12 -12 -11 -10 -10 -10 -10 -10 -9 -9 -9 -9 -9 -10 -10 -11 -11 -10 -10 -11 -11 -11 -11 -11 -11 -10 -9 -9 -8 -6 -5 -5 -4 -2 -1 -1 4 9 11 13 14 12 11 13 12 11 11 12
-7 -7 -8 -11 -14 -12 -11 -12 -12 -13 -15 -15 -11 -11 -14 -13 -13 -13 -13 -13 -12 -11 -11 -10 -11 -11 -10 -12 -12 -13 -14 -13 -13 -13 -13 -13 -12 -12 -12 -11 -10 -10 -10 -9 -8 -6 -4 -3 -2 1 0 6 11 12 14 15 14 16 14 12 11 11
-6 -6 -8 -10 -11 -11 -10 -11 -10 -10 -12 -13 -11 -15 -16 -16 -15 -15 -15 -16 -14 -14 -14 -15 -15 -14 -16 -16 -15 -15 -16 -16 -15 -15 -15 -13 -13 -14 -14 -13 -12 -11 -12 -12 -10 -7 -5 -4 -2 -0 2 3 9 12 14 15 16 17 14 14 11 11
-4 -6 -9 -10 -12 -12 -12 -11 -10 -11 -12 -10 -11 -12 -15 -17 -18 -18 -18 -17 -17 -17 -18 -18 -18 -18 -19 -18 -18 -19 -18 -18 -17 -17 -16 -15 -15 -14 -15 -14 -14 -14 -14 -12 -12 -9 -7 -4 -2 -1 2 5 7 12 13 15 16 16 16 11 10 11
-8 -9 -8 -9 -12 -12 -13 -12 -11 -13 -9 -13 -13 -13 -14 -15 -17 -18 -18 -19 -19 -19 -20 -21 -21 -21 -20 -19 -19 -20 -19 -20 -20 -19 -18 -17 -17 -17 -17 -17 -15 -15 -14 -13 -12 -10 -8 -5 -2 -0 3 5 5 6 10 13 14 12 12 11 11 12
-8 -8 -8 -8 -10 -12 -12 -16 -13 -10 -10 -12 -15 -16 -17 -21 -17 -19 -19 -19 -19 -21 -22 -25 -21 -22 -21 -24 -20 -20 -20 -19 -19 -19 -19 -19 -20 -20 -18 -18 -16 -16 -16 -15 -12 -9 -6 -4 -1 0 1 3 4 5 8 10 9 11 11 10 10 11
-8 -7 -8 -7 -7 -10 -12 -13 -13 -12 -13 -13 -18 -24 -25 -24 -23 -20 -18 -17 -17 -20 -19 -21 -17 -17 -21 -21 -21 -22 -21 -20 -19 -20 -20 -18 -18 -18 -18 -17 -17 -16 -14 -13 -10 -7 -5 -3 -0 -0 -1 2 5 8 9 8 8 8 8 9 10 10
-8 -7 -7 -6 -6 -10 -11 -14 -14 -15 -18 -17 -24 -24 -26 -21 -22 -19 -22 -22 -24 -22 -21 -21 -23 -22 -23 -22 -21 -20 -19 -20 -19 -19 -18 -15 -15 -16 -17 -16 -15 -11 -9 -7 -6 -5 -3 -1 -1 0 6 8 12 9 7 6 7 8 9 10 13 4
-8 -7 -8 -6 -8 -10 -11 -15 -13 -15 -21 -25 -27 -26 -22 -21 -21 -26 -22 -23 -25 -23 -24 -25 -24 -27 -24 -23 -23 -22 -20 -14 -11 -12 -14 -14 -8 -6 -3 -0 -4 -2 -1 -1 1 3 -0 -2 0 8 11 11 11 11 12 11 12 14 11 11 11 -0
-11 -10 -9 -8 -9 -11 -12 -12 -13 -14 -19 -24 -24 -25 -21 -24 -24 -24 -22 -23 -25 -21 -23 -26 -25 -26 -27 -26 -25 -24 -22 -21 -17 -11 -8 -7 -7 -6 -3 2 5 7 7 4 1 2 5 4 7 8 9 10 9 10 10 11 12 12 12 11 2 -9
-13 -12 -10 -8 -10 -11 -12 -13 -13 -14 -15 -21 -24 -24 -23 -23 -22 -22 -21 -22 -25 -22 -21 -27 -25 -25 -25 -25 -27 -26 -25 -25 -23 -20 -12 -9 -8 -6 -4 1 3 4 5 6 4 -0 -2 2 5 7 7 7 7 8 9 11 11 10 10 8 3 -12
-10 -9 -10 -10 -11 -13 -13 -13 -12 -14 -22 -22 -23 -25 -24 -25 -24 -22 -22 -23 -22 -22 -22 -23 -25 -25 -25 -27 -26 -26 -29 -26 -25 -24 -21 -16 -11 -8 -7 -5 -1 1 2 3 2 1 1 1 4 5 4 2 5 7 8 10 8 7 7 3 -9 -15
-13 -11 -10 -12 -12 -13 -13 -13 -12 -14 -16 -22 -23 -24 -23 -23 -23 -22 -22 -23 -23 -24 -26 -25 -27 -25 -25 -27 -27 -27 -27 -25 -25 -24 -24 -22 -20 -16 -12 -8 -7 -5 -6 -4 0 2 -1 -1 -2 -2 -1 0 1 6 8 6 -0 4 3 -3 -14 -15
-13 -13 -12 -12 -13 -14 -14 -13 -13 -14 -19 -22 -24 -25 -25 -24 -24 -25 -20 -17 -18 -26 -23 -25 -26 -26 -26 -28 -28 -27 -26 -24 -25 -23 -22 -22 -21 -21 -20 -18 -16 -11 -8 -10 -7 -4 -4 -4 -3 -2 -0 -0 2 4 6 -0 -13 -14 -14 -13 -16 -15
-14 -13 -13 -13 -14 -14 -15 -13 -13 -16 -21 -22 -24 -24 -24 -24 -25 -25 -24 -21 -19 -19 -22 -25 -25 -26 -25 -25 -26 -27 -25 -23 -23 -23 -22 -21 -20 -20 -21 -19 -18 -17 -13 -10 -9 -7 -6 -5 -5 -5 -3 -2 -2 2 1 -14 -17 -17 -17 -16 -16 -16
MSLP
1038.35 1038.55 1038.71 1038.75 1038.87 1038.83 1038.83 1038.83 1038.79 1038.87 1038.79 1038.67 1038.71 1038.71 1038.55 1038.47 1038.27 1038.11 1037.95 1037.63 1037.55 1037.39 1037.23 1037.11 1036.91 1036.79 1036.59 1036.47 1036.23 1036.07 1035.83 1035.59 1035.35 1035.23 1034.95 1034.67 1034.35 1034.03 1033.75 1033.39 1032.99 1032.63 1032.31 1031.95 1031.59 1031.23 1030.95 1030.59 1030.27 1029.83 1029.43 1028.99 1028.47 1027.99 1027.67 1027.27 1026.87 1026.47 1026.07 1025.63 1025.35 1025.03
1038.47 1038.63 1038.75 1038.95 1038.99 1038.99 1038.99 1038.99 1038.95 1039.07 1039.03 1038.99 1038.87 1038.95 1038.79 1038.67 1038.51 1038.43 1038.27 1037.99 1037.87 1037.75 1037.55 1037.39 1037.23 1037.11 1036.83 1036.75 1036.47 1036.35 1036.15 1035.95 1035.71 1035.47 1035.11 1034.87 1034.63 1034.27 1034.07 1033.71 1033.35 1033.03 1032.67 1032.27 1031.95 1031.55 1031.23 1030.87 1030.51 1030.15 1029.83 1029.43 1029.03 1028.55 1028.11 1027.63 1027.19 1026.87 1026.47 1026.03 1025.75 1025.39
1038.39 1038.55 1038.83 1039.03 1039.11 1039.11 1039.27 1039.23 1039.27 1039.27 1039.35 1039.27 1039.19 1039.31 1039.03 1038.99 1038.83 1038.79 1038.59 1038.31 1038.15 1038.03 1037.83 1037.67 1037.43 1037.35 1037.07 1037.07 1036.75 1036.71 1036.43 1036.27 1036.03 1035.79 1035.51 1035.19 1034.87 1034.51 1034.31 1033.91 1033.63 1033.31 1032.99 1032.63 1032.27 1031.91 1031.55 1031.19 1030.83 1030.47 1030.11 1029.75 1029.39 1028.95 1028.47 1028.03 1027.55 1027.19 1026.87 1026.47 1026.15 1025.79
1038.39 1038.63 1038.95 1039.23 1039.39 1039.43 1039.51 1039.51 1039.63 1039.51 1039.59 1039.51 1039.51 1039.59 1039.35 1039.39 1039.19 1039.15 1038.95 1038.67 1038.43 1038.35 1038.03 1037.91 1037.75 1037.55 1037.39 1037.31 1037.03 1036.99 1036.71 1036.51 1036.31 1035.99 1035.71 1035.47 1035.15 1034.87 1034.55 1034.19 1033.87 1033.59 1033.23 1032.87 1032.55 1032.23 1031.87 1031.55 1031.19 1030.79 1030.43 1030.07 1029.63 1029.15 1028.67 1028.23 1027.87 1027.51 1027.19 1026.79 1026.47 1026.15
1038.27 1038.59 1038.91 1039.31 1039.51 1039.59 1039.63 1039.79 1039.83 1039.79 1039.79 1039.83 1039.71 1039.75 1039.59 1039.63 1039.47 1039.47 1039.27 1038.95 1038.75 1038.55 1038.31 1038.19 1037.99 1037.83 1037.63 1037.63 1037.31 1037.31 1037.03 1036.83 1036.55 1036.23 1036.03 1035.71 1035.35 1035.11 1034.83 1034.47 1034.19 1033.83 1033.47 1033.19 1032.83 1032.47 1032.11 1031.79 1031.47 1031.07 1030.75 1030.39 1029.95 1029.43 1028.91 1028.51 1028.11 1027.83 1027.47 1027.11 1026.79 1026.43
1038.39 1038.71 1039.03 1039.43 1039.75 1039.87 1039.87 1039.95 1039.95 1039.91 1039.99 1039.99 1039.91 1040.03 1039.87 1039.83 1039.67 1039.67 1039.47 1039.19 1038.99 1038.79 1038.55 1038.43 1038.23 1038.11 1037.87 1037.87 1037.67 1037.67 1037.35 1037.15 1036.87 1036.51 1036.27 1035.95 1035.67 1035.39 1034.99 1034.71 1034.39 1034.07 1033.75 1033.43 1033.07 1032.71 1032.35 1032.03 1031.67 1031.31 1030.99 1030.63 1030.11 1029.59 1029.11 1028.63 1028.35 1028.03 1027.71 1027.43 1027.07 1026.71
1038.35 1038.55 1038.91 1039.39 1039.71 1039.83 1039.99 1040.03 1040.03 1040.07 1040.07 1040.11 1039.99 1040.15 1039.99 1039.99 1039.79 1039.83 1039.63 1039.35 1039.19 1038.99 1038.79 1038.67 1038.47 1038.35 1038.19 1038.11 1037.99 1037.87 1037.63 1037.47 1037.15 1036.83 1036.59 1036.19 1035.95 1035.59 1035.19 1034.87 1034.59 1034.27 1033.95 1033.67 1033.35 1032.95 1032.63 1032.31 1031.87 1031.51 1031.15 1030.75 1030.23 1029.75 1029.27 1028.87 1028.51 1028.19 1027.87 1027.59 1027.27 1026.95
1038.11 1038.39 1038.83 1039.31 1039.59 1039.79 1039.95 1039.99 1040.03 1040.07 1040.07 1040.19 1040.03 1040.15 1040.11 1040.03 1039.83 1039.91 1039.71 1039.47 1039.43 1039.23 1039.03 1038.91 1038.83 1038.63 1038.47 1038.39 1038.35 1038.15 1037.95 1037.71 1037.43 1037.15 1036.87 1036.55 1036.23 1035.87 1035.51 1035.15 1034.87 1034.55 1034.23 1033.95 1033.59 1033.23 1032.91 1032.51 1032.11 1031.75 1031.35 1030.83 1030.27 1029.83 1029.35 1028.95 1028.63 1028.31 1027.99 1027.67 1027.39 1027.15
1037.71 1038.07 1038.59 1038.99 1039.35 1039.63 1039.83 1039.87 1040.03 1040.07 1040.07 1040.19 1040.07 1040.15 1040.19 1040.03 1039.99 1039.99 1039.79 1039.59 1039.59 1039.39 1039.19 1039.19 1039.11 1038.87 1038.75 1038.63 1038.59 1038.39 1038.19 1037.95 1037.71 1037.47 1037.19 1036.75 1036.55 1036.15 1035.75 1035.47 1035.15 1034.83 1034.47 1034.19 1033.75 1033.47 1033.11 1032.67 1032.27 1031.91 1031.43 1030.91 1030.39 1029.87 1029.39 1028.99 1028.63 1028.35 1028.03 1027.71 1027.43 1027.15
1037.43 1037.87 1038.27 1038.71 1039.11 1039.43 1039.71 1039.75 1039.95 1040.07 1040.07 1040.23 1040.07 1040.15 1040.23 1040.07 1040.15 1039.99 1039.83 1039.71 1039.67 1039.47 1039.35 1039.35 1039.19 1039.07 1038.91 1038.83 1038.71 1038.59 1038.39 1038.15 1037.91 1037.71 1037.35 1037.07 1036.79 1036.39 1036.11 1035.83 1035.39 1035.07 1034.75 1034.35 1033.95 1033.67 1033.27 1032.87 1032.39 1031.99 1031.47 1030.99 1030.43 1029.83 1029.39 1029.03 1028.67 1028.35 1028.03 1027.67 1027.35 1027.07
1036.95 1037.51 1037.95 1038.39 1038.83 1039.19 1039.47 1039.75 1039.91 1039.99 1040.15 1040.11 1040.07 1040.19 1040.27 1040.07 1040.23 1040.03 1039.87 1039.79 1039.75 1039.55 1039.47 1039.43 1039.27 1039.15 1039.03 1038.99 1038.87 1038.71 1038.55 1038.31 1038.11 1037.83 1037.59 1037.31 1036.99 1036.63 1036.43 1036.03 1035.67 1035.35 1034.95 1034.51 1034.23 1033.83 1033.43 1033.03 1032.63 1032.11 1031.55 1030.91 1030.27 1029.83 1029.39 1029.03 1028.71 1028.39 1027.99 1027.63 1027.31 1027.07
1036.59 1037.11 1037.63 1038.07 1038.47 1038.79 1039.23 1039.59 1039.79 1039.99 1040.15 1040.15 1040.03 1040.23 1040.15 1040.11 1040.31 1039.99 1039.99 1039.91 1039.75 1039.63 1039.59 1039.47 1039.39 1039.27 1039.19 1039.15 1038.99 1038.87 1038.67 1038.47 1038.19 1037.91 1037.71 1037.43 1037.11 1036.91 1036.59 1036.23 1035.95 1035.67 1035.19 1034.79 1034.43 1034.07 1033.67 1033.31 1032.83 1032.19 1031.51 1030.91 1030.35 1029.79 1029.43 1029.03 1028.71 1028.31 1027.95 1027.67 1027.35 1027.11
1036.39 1036.83 1037.27 1037.55 1037.95 1038.43 1038.83 1039.19 1039.51 1039.87 1040.07 1040.03 1040.03 1040.19 1040.11 1040.23 1040.23 1040.07 1039.99 1039.95 1039.75 1039.71 1039.63 1039.55 1039.47 1039.35 1039.39 1039.19 1039.19 1038.99 1038.79 1038.55 1038.27 1038.07 1037.83 1037.47 1037.23 1037.07 1036.71 1036.43 1036.27 1035.83 1035.43 1035.15 1034.75 1034.35 1033.95 1033.43 1032.91 1032.11 1031.47 1030.87 1030.31 1029.87 1029.47 1029.07 1028.63 1028.27 1028.03 1027.79 1027.59 1027.27
1036.07 1036.39 1036.67 1037.11 1037.59 1038.19 1038.63 1038.99 1039.47 1039.71 1039.95 1039.79 1040.11 1040.03 1040.15 1040.23 1040.11 1040.15 1040.03 1039.95 1039.87 1039.79 1039.75 1039.67 1039.59 1039.51 1039.43 1039.35 1039.27 1039.07 1038.87 1038.63 1038.43 1038.19 1037.87 1037.59 1037.39 1037.11 1036.87 1036.71 1036.31 1035.95 1035.71 1035.35 1035.03 1034.71 1034.19 1033.63 1032.95 1032.23 1031.51 1030.83 1030.31 1029.91 1029.47 1029.03 1028.71 1028.43 1028.23 1027.95 1027.71 1027.39
1035.51 1035.91 1036.35 1036.87 1037.39 1037.91 1038.51 1038.87 1039.23 1039.59 1039.51 1039.83 1039.95 1040.03 1040.19 1040.11 1040.15 1040.11 1040.07 1039.99 1039.91 1039.91 1039.79 1039.83 1039.75 1039.63 1039.55 1039.47 1039.31 1039.15 1038.91 1038.75 1038.51 1038.27 1037.91 1037.75 1037.51 1037.27 1037.07 1036.71 1036.39 1036.19 1035.79 1035.51 1035.23 1034.83 1034.35 1033.87 1033.15 1032.35 1031.55 1030.91 1030.39 1029.87 1029.39 1028.99 1028.83 1028.67 1028.47 1028.15 1027.91 1027.51
1035.35 1035.67 1035.99 1036.51 1037.23 1037.83 1038.43 1038.75 1039.15 1039.23 1039.51 1039.79 1039.91 1040.07 1040.07 1040.15 1040.15 1040.11 1040.11 1040.03 1039.99 1039.91 1039.91 1039.87 1039.83 1039.75 1039.67 1039.55 1039.43 1039.23 1039.03 1038.83 1038.63 1038.31 1038.11 1037.87 1037.59 1037.39 1037.07 1036.83 1036.55 1036.23 1035.95 1035.67 1035.31 1034.95 1034.55 1034.03 1033.31 1032.35 1031.59 1031.03 1030.43 1029.87 1029.31 1029.15 1029.03 1028.87 1028.59 1028.27 1027.91 1027.51
1034.95 1035.51 1036.07 1036.59 1037.35 1038.03 1038.43 1038.79 1039.11 1039.31 1039.59 1039.75 1039.99 1039.95 1040.19 1040.19 1040.19 1040.19 1040.15 1040.07 1040.03 1039.99 1039.99 1039.95 1039.91 1039.91 1039.79 1039.67 1039.55 1039.35 1039.15 1038.95 1038.67 1038.39 1038.23 1037.99 1037.79 1037.51 1037.23 1036.87 1036.63 1036.31 1035.99 1035.71 1035.39 1035.03 1034.59 1034.11 1033.15 1032.31 1031.67 1031.07 1030.47 1029.83 1029.39 1029.35 1029.15 1028.87 1028.55 1028.15 1027.87 1027.63
1034.43 1034.87 1035.63 1036.87 1037.51 1037.95 1038.35 1038.59 1038.87 1039.31 1039.55 1039.63 1039.95 1040.07 1040.11 1040.19 1040.23 1040.19 1040.15 1040.15 1040.07 1040.11 1040.03 1040.03 1040.03 1039.99 1039.91 1039.75 1039.59 1039.47 1039.27 1038.99 1038.75 1038.51 1038.31 1038.15 1037.91 1037.63 1037.31 1037.03 1036.75 1036.43 1036.07 1035.75 1035.43 1035.03 1034.55 1033.99 1033.19 1032.47 1031.71 1031.07 1030.51 1029.83 1029.59 1029.43 1029.15 1028.79 1028.43 1028.15 1027.87 1027.47
1034.47 1035.11 1036.07 1036.99 1037.43 1037.79 1038.19 1038.55 1038.87 1039.27 1039.55 1039.75 1039.99 1040.11 1040.23 1040.19 1040.19 1040.19 1040.15 1040.11 1040.11 1040.15 1040.15 1040.11 1040.11 1040.07 1039.91 1039.79 1039.67 1039.51 1039.27 1038.95 1038.83 1038.67 1038.51 1038.27 1038.03 1037.71 1037.43 1037.15 1036.83 1036.55 1036.19 1035.79 1035.43 1035.03 1034.55 1033.99 1033.35 1032.51 1031.79 1031.15 1030.55 1029.95 1029.71 1029.39 1029.03 1028.71 1028.39 1028.11 1027.75 1027.43
1035.23 1035.79 1036.19 1036.95 1037.51 1037.79 1038.11 1038.55 1038.91 1039.23 1039.43 1039.67 1039.91 1040.07 1040.11 1040.11 1040.07 1040.11 1040.11 1040.11 1040.07 1040.07 1040.11 1040.15 1040.11 1040.03 1039.91 1039.79 1039.71 1039.47 1039.23 1039.11 1038.99 1038.83 1038.63 1038.51 1038.15 1037.83 1037.55 1037.27 1036.95 1036.67 1036.27 1035.83 1035.43 1035.07 1034.55 1034.03 1033.43 1032.67 1031.87 1031.19 1030.55 1029.99 1029.67 1029.27 1028.91 1028.63 1028.31 1027.99 1027.63 1027.23
1035.63 1036.19 1036.75 1037.11 1037.23 1037.95 1038.27 1038.59 1038.91 1039.11 1039.15 1039.43 1039.67 1039.87 1039.87 1039.83 1039.91 1039.95 1039.99 1039.99 1039.95 1040.03 1040.11 1040.11 1040.07 1039.99 1039.87 1039.75 1039.63 1039.51 1039.35 1039.23 1039.03 1038.91 1038.83 1038.59 1038.27 1037.99 1037.67 1037.35 1036.99 1036.59 1036.19 1035.83 1035.43 1034.95 1034.63 1034.11 1033.55 1032.79 1032.03 1031.19 1030.51 1029.99 1029.59 1029.23 1028.87 1028.51 1028.23 1027.75 1027.23 1026.75
1036.27 1036.63 1036.63 1036.71 1036.99 1038.03 1038.31 1038.63 1038.87 1038.91 1038.95 1039.15 1039.55 1039.55 1039.43 1039.47 1039.63 1039.75 1039.83 1039.91 1039.95 1040.03 1039.99 1040.03 1039.99 1039.91 1039.87 1039.75 1039.59 1039.51 1039.43 1039.27 1039.15 1038.95 1038.71 1038.51 1038.35 1038.03 1037.67 1037.31 1036.99 1036.55 1036.11 1035.71 1035.39 1034.95 1034.55 1034.15 1033.63 1033.03 1031.99 1031.19 1030.51 1029.95 1029.51 1029.19 1028.83 1028.51 1027.95 1027.43 1026.91 1026.31
1035.71 1035.35 1035.83 1036.63 1037.43 1038.07 1038.39 1038.67 1038.71 1038.59 1038.83 1039.07 1039.27 1038.91 1038.95 1039.31 1039.55 1039.67 1039.75 1039.83 1039.87 1039.91 1039.91 1039.87 1039.87 1039.83 1039.75 1039.71 1039.63 1039.51 1039.43 1039.35 1039.15 1038.91 1038.75 1038.51 1038.27 1037.99 1037.59 1037.19 1036.79 1036.43 1036.07 1035.67 1035.31 1034.95 1034.55 1034.19 1033.63 1032.99 1032.07 1031.19 1030.51 1029.91 1029.47 1029.11 1028.75 1028.35 1027.71 1027.11 1026.63 1026.31
1036.31 1036.67 1037.07 1037.55 1037.75 1038.07 1038.39 1038.51 1038.31 1038.27 1038.59 1038.83 1038.51 1038.27 1038.99 1039.31 1039.43 1039.59 1039.67 1039.75 1039.75 1039.75 1039.75 1039.75 1039.71 1039.71 1039.63 1039.59 1039.59 1039.51 1039.31 1039.23 1039.15 1038.99 1038.79 1038.55 1038.27 1037.87 1037.47 1037.03 1036.67 1036.35 1035.91 1035.59 1035.27 1034.95 1034.55 1033.99 1033.59 1032.95 1032.15 1031.31 1030.55 1029.91 1029.31 1028.95 1028.55 1027.99 1027.35 1026.83 1026.51 1026.03
1035.83 1036.03 1036.27 1037.35 1037.91 1038.11 1038.27 1038.31 1037.91 1038.07 1038.39 1038.35 1037.75 1038.43 1038.99 1039.11 1039.31 1039.43 1039.51 1039.59 1039.59 1039.59 1039.59 1039.59 1039.55 1039.59 1039.55 1039.51 1039.55 1039.47 1039.27 1039.15 1039.03 1038.83 1038.71 1038.47 1038.11 1037.75 1037.31 1036.91 1036.59 1036.23 1035.83 1035.51 1035.19 1034.79 1034.31 1033.83 1033.35 1032.75 1032.15 1031.39 1030.55 1029.83 1029.15 1028.67 1028.15 1027.55 1027.11 1026.75 1026.27 1025.99
1035.83 1036.11 1036.79 1037.27 1037.75 1037.95 1038.07 1037.95 1037.63 1037.87 1038.03 1037.39 1037.91 1038.59 1038.83 1038.99 1039.11 1039.27 1039.31 1039.35 1039.39 1039.43 1039.43 1039.43 1039.47 1039.51 1039.51 1039.55 1039.51 1039.43 1039.27 1039.07 1038.95 1038.75 1038.55 1038.31 1037.99 1037.59 1037.23 1036.87 1036.59 1036.23 1035.87 1035.43 1034.91 1034.55 1034.07 1033.59 1033.07 1032.43 1031.83 1031.27 1030.51 1029.67 1028.99 1028.35 1027.79 1027.23 1026.87 1026.59 1026.59 1026.39
1034.99 1035.71 1036.39 1037.03 1037.31 1037.83 1037.87 1037.91 1037.43 1037.39 1037.35 1037.35 1037.95 1038.15 1038.39 1038.59 1038.83 1038.95 1038.99 1039.07 1039.19 1039.27 1039.27 1039.39 1039.39 1039.39 1039.43 1039.43 1039.39 1039.23 1039.03 1038.91 1038.79 1038.55 1038.23 1038.15 1037.87 1037.59 1037.23 1036.83 1036.55 1036.27 1035.83 1035.39 1034.91 1034.31 1033.79 1033.23 1032.71 1032.07 1031.43 1030.91 1030.35 1029.63 1028.83 1028.11 1027.51 1027.15 1026.91 1026.91 1026.67 1026.39
1035.83 1035.83 1035.71 1036.31 1037.03 1037.35 1037.63 1037.67 1037.51 1036.91 1036.71 1037.27 1037.59 1037.87 1038.11 1038.35 1038.51 1038.59 1038.63 1038.79 1038.95 1038.99 1039.15 1039.11 1039.15 1039.27 1039.23 1039.19 1039.19 1039.07 1038.95 1038.79 1038.67 1038.51 1038.15 1037.95 1037.75 1037.55 1037.27 1036.87 1036.51 1036.11 1035.75 1035.31 1034.75 1034.15 1033.43 1032.79 1032.19 1031.51 1030.95 1030.55 1030.11 1029.55 1028.71 1028.03 1027.47 1027.31 1027.15 1026.95 1026.47 1025.83
1035.51 1035.43 1035.51 1035.39 1036.19 1036.83 1037.15 1037.31 1037.39 1036.91 1036.87 1037.15 1037.47 1037.79 1037.99 1038.15 1038.27 1038.27 1038.43 1038.51 1038.67 1038.83 1038.95 1038.83 1038.75 1038.79 1038.83 1038.83 1038.83 1038.83 1038.75 1038.67 1038.55 1038.31 1038.03 1037.79 1037.55 1037.27 1036.99 1036.63 1036.27 1035.87 1035.55 1035.15 1034.43 1033.67 1032.87 1032.19 1031.55 1031.03 1030.75 1030.35 1029.67 1028.87 1028.15 1027.79 1027.51 1027.27 1026.87 1026.35 1025.79 1025.27
1034.87 1034.83 1035.07 1035.07 1035.31 1036.07 1036.51 1036.83 1036.87 1036.91 1037.07 1037.19 1037.51 1037.71 1037.91 1037.91 1038.03 1038.03 1038.07 1038.23 1038.39 1038.43 1038.51 1038.55 1038.55 1038.47 1038.43 1038.51 1038.59 1038.43 1038.35 1038.31 1038.27 1038.03 1037.67 1037.31 1037.11 1036.91 1036.51 1036.31 1035.99 1035.67 1035.19 1034.59 1033.75 1032.83 1032.27 1031.71 1031.03 1030.87 1030.63 1029.87 1028.99 1028.23 1027.95 1027.79 1027.51 1027.03 1026.43 1025.83 1025.43 1025.19
1034.51 1034.47 1034.67 1034.51 1034.83 1035.43 1035.87 1036.07 1036.31 1036.67 1036.83 1036.95 1037.31 1037.59 1037.55 1037.51 1037.71 1037.91 1037.91 1038.15 1038.31 1038.23 1038.43 1038.43 1038.43 1038.39 1038.39 1038.31 1038.31 1038.27 1038.15 1037.95 1037.79 1037.63 1037.27 1037.03 1036.99 1036.79 1036.43 1036.07 1035.59 1035.07 1034.47 1033.79 1033.03 1032.31 1031.55 1031.03 1030.95 1030.79 1030.07 1029.19 1028.59 1028.23 1027.95 1027.67 1027.27 1026.67 1026.07 1025.87 1025.43 1025.83
1034.23 1034.15 1034.31 1034.31 1034.67 1034.99 1035.27 1035.51 1035.91 1036.31 1036.55 1036.83 1037.11 1037.43 1037.19 1037.23 1037.43 1037.55 1037.59 1037.91 1037.99 1038.03 1038.15 1038.19 1038.19 1038.23 1038.23 1038.15 1037.99 1037.87 1037.67 1037.63 1037.43 1037.07 1036.79 1036.19 1035.99 1035.83 1035.39 1034.83 1034.23 1033.63 1033.07 1032.43 1031.91 1031.71 1031.47 1031.31 1030.95 1030.19 1029.51 1029.03 1028.67 1028.43 1028.11 1027.63 1027.03 1026.35 1026.11 1025.87 1025.87 1026.75
1034.47 1034.51 1034.31 1034.19 1034.51 1034.75 1034.99 1035.11 1035.47 1035.83 1036.23 1036.59 1036.87 1037.03 1036.87 1037.11 1037.11 1037.19 1037.31 1037.55 1037.47 1037.63 1037.71 1037.79 1037.75 1037.83 1037.91 1037.91 1037.87 1037.79 1037.51 1037.11 1036.91 1036.75 1036.31 1035.91 1035.55 1035.27 1034.99 1034.31 1033.55 1032.83 1032.35 1032.07 1031.91 1031.79 1031.75 1031.35 1030.71 1030.15 1029.59 1029.19 1028.99 1028.63 1028.11 1027.55 1026.87 1026.51 1026.39 1026.19 1026.59 1027.39
1034.11 1034.07 1033.59 1033.91 1034.27 1034.43 1034.71 1034.87 1035.11 1035.39 1035.67 1036.11 1036.51 1036.79 1036.75 1036.83 1036.83 1036.63 1036.71 1036.99 1037.19 1037.35 1037.35 1037.43 1037.47 1037.51 1037.55 1037.51 1037.59 1037.51 1037.39 1037.23 1036.71 1036.03 1035.95 1035.75 1035.35 1035.15 1034.75 1033.99 1033.39 1032.99 1032.63 1032.23 1032.11 1032.03 1031.79 1031.43 1030.91 1030.27 1029.83 1029.67 1029.35 1028.79 1028.15 1027.47 1027.03 1026.95 1026.87 1026.75 1027.31 1027.91
1033.11 1033.51 1033.79 1033.91 1034.03 1034.19 1034.39 1034.51 1034.55 1035.07 1035.39 1035.75 1036.11 1036.43 1036.39 1036.55 1036.63 1036.47 1036.51 1036.79 1036.91 1037.07 1037.15 1037.15 1037.19 1037.19 1037.23 1037.11 1037.07 1037.07 1037.15 1036.91 1036.79 1036.19 1035.35 1035.15 1035.39 1035.07 1034.55 1034.15 1033.71 1033.31 1032.91 1032.67 1032.43 1032.23 1031.83 1031.39 1030.95 1030.55 1030.39 1030.15 1029.59 1028.87 1028.15 1027.47 1027.55 1027.55 1027.35 1027.51 1028.11 1028.23
1033.19 1033.27 1033.43 1033.59 1033.75 1033.87 1034.07 1034.07 1034.15 1034.59 1034.91 1035.39 1035.75 1035.99 1035.91 1036.07 1036.23 1036.23 1036.31 1036.39 1036.51 1036.67 1036.79 1036.87 1036.95 1036.91 1036.91 1036.99 1036.99 1036.95 1036.87 1036.83 1036.67 1036.43 1036.27 1035.71 1034.83 1034.27 1034.15 1034.15 1033.95 1033.67 1033.47 1033.15 1032.67 1032.07 1031.91 1031.75 1031.43 1031.07 1030.63 1030.15 1029.71 1028.95 1028.11 1027.91 1028.31 1028.15 1028.03 1028.23 1028.55 1028.43
1032.99 1033.11 1033.23 1033.31 1033.51 1033.71 1033.79 1033.63 1033.71 1034.23 1034.63 1034.99 1035.31 1035.51 1035.67 1035.79 1035.95 1036.15 1036.19 1036.23 1036.27 1036.39 1036.39 1036.51 1036.63 1036.71 1036.67 1036.71 1036.71 1036.63 1036.55 1036.39 1036.39 1036.35 1036.03 1035.67 1035.27 1034.87 1034.35 1033.87 1033.67 1033.63 1033.59 1033.31 1032.91 1032.39 1032.15 1031.79 1031.39 1031.03 1030.51 1030.15 1029.71 1029.07 1028.35 1028.71 1029.07 1028.71 1028.43 1028.35 1028.47 1028.39
1032.71 1032.75 1033.03 1033.27 1033.35 1033.39 1033.43 1033.19 1033.47 1033.95 1034.31 1034.59 1034.91 1035.07 1035.15 1035.39 1035.63 1035.79 1035.95 1035.99 1035.99 1035.95 1036.03 1036.15 1036.27 1036.39 1036.35 1036.27 1036.27 1036.39 1036.39 1036.31 1036.19 1035.87 1035.63 1035.47 1035.31 1035.03 1034.63 1034.15 1033.79 1033.63 1033.31 1033.07 1032.75 1032.47 1032.11 1031.75 1031.43 1031.07 1030.63 1030.27 1029.95 1029.31 1029.03 1029.63 1029.39 1029.19 1028.91 1028.71 1028.51 1028.39
Wind_Speed
2 2 3 4 4 4 4 5 5 6 6 7 7 8 8 9 8 8 7 8 7 7 9 10 9 9 8 9 9 9 9 10 9 10 9 9 9 9 11 10 10 11 11 11 11 10 11 11 11 11 10 11 9 10 9 9 10 10 10 9 10 9
2 2 2 3 3 4 4 5 4 6 6 7 7 7 7 8 8 9 8 8 8 9 8 8 8 9 8 10 9 9 9 10 10 11 10 11 9 9 10 9 11 11 11 11 11 11 10 11 10 10 10 10 9 10 9 10 10 10 10 10 10 9
3 2 2 2 3 3 4 4 5 5 5 6 7 8 7 8 8 8 7 7 8 9 9 9 9 10 8 10 9 9 9 9 10 9 9 10 9 10 10 10 11 11 11 11 11 11 11 11 11 10 10 9 9 9 9 10 11 10 9 9 10 10
4 3 2 1 1 2 3 3 3 4 5 4 5 6 5 7 7 8 8 7 7 8 8 8 8 8 8 10 9 10 9 10 9 10 10 10 9 10 11 11 10 10 11 11 11 11 11 11 11 10 10 10 11 10 8 9 11 11 10 10 10 10
4 3 2 2 1 1 2 2 3 3 4 4 4 5 6 6 6 7 6 6 7 8 7 7 8 8 8 9 8 10 10 10 10 10 10 10 9 9 9 10 11 11 11 11 11 11 10 11 11 10 10 10 10 10 11 10 11 11 11 11 11 11
4 2 2 1 0 1 1 1 2 2 2 3 2 5 6 5 5 6 5 6 7 8 7 7 7 8 8 9 8 10 10 10 9 10 10 10 9 10 10 10 10 10 11 10 11 11 11 11 11 10 10 10 10 11 11 11 11 10 10 11 11 10
5 4 3 2 1 1 0 1 1 1 3 3 2 3 4 4 4 5 5 6 7 7 7 8 7 8 9 9 8 9 10 9 9 9 10 10 10 10 10 10 10 10 10 10 11 11 11 11 11 11 11 10 9 11 11 11 10 10 11 10 10 11
4 4 4 3 2 1 1 1 1 1 2 2 2 3 4 4 3 5 5 5 6 6 7 7 7 8 8 8 9 10 9 9 9 9 9 9 10 11 10 10 10 10 11 10 11 11 11 11 11 11 11 10 11 11 11 10 10 10 10 10 10 10
7 6 5 4 3 2 1 1 1 1 2 2 2 1 3 4 4 5 5 5 6 5 6 7 7 7 7 7 8 8 8 9 9 9 9 9 9 10 10 10 11 10 10 11 10 11 11 11 11 11 10 10 12 12 12 12 11 11 10 10 10 10
6 6 6 5 5 3 2 1 1 1 2 3 2 2 3 3 4 4 4 4 5 5 6 6 6 6 6 6 7 7 8 8 8 9 9 9 9 9 10 11 11 11 10 10 10 11 10 11 10 10 9 11 12 12 12 12 11 11 11 11 10 10
7 7 7 6 5 5 4 2 2 1 1 2 1 2 3 2 4 4 4 4 5 5 5 6 5 5 6 7 7 8 8 8 8 8 8 8 8 8 9 9 10 11 11 10 10 11 10 9 9 8 10 13 13 13 13 12 12 12 12 11 11 10
6 7 7 7 7 7 4 3 3 2 2 2 0 2 3 2 4 3 4 4 5 5 6 6 6 6 6 7 7 8 8 8 8 8 8 8 8 9 9 9 9 10 10 11 11 10 9 9 8 12 21 19 14 14 12 12 12 12 11 11 11 11
6 6 8 8 8 7 5 4 3 2 1 2 0 1 2 2 3 3 4 5 5 5 6 5 5 6 6 6 7 7 8 8 8 8 8 8 8 9 9 9 10 9 10 10 11 11 10 9 9 20 21 21 22 15 13 13 12 12 11 11 11 11
8 9 10 9 8 7 6 4 3 3 3 2 1 1 1 2 3 4 4 4 5 5 5 5 6 6 6 7 7 7 8 8 8 8 8 8 9 8 8 9 9 9 9 9 10 10 10 10 15 22 22 22 22 20 14 12 11 10 10 10 11 10
9 9 8 7 8 7 7 5 4 4 3 2 2 0 2 2 3 4 4 4 5 5 5 6 6 6 6 7 7 7 7 8 8 8 8 9 9 9 9 9 9 9 9 9 10 10 10 10 17 21 22 22 22 22 18 11 11 10 10 11 11 11
6 7 8 7 6 7 6 6 5 3 2 2 1 1 2 2 3 3 4 4 4 4 5 5 6 6 7 7 7 7 7 8 8 8 8 8 8 8 9 9 9 9 9 9 10 10 10 11 16 21 22 21 22 22 19 11 11 10 11 11 11 11
6 5 6 7 7 6 6 5 5 4 3 3 2 2 1 2 3 3 4 4 4 4 5 5 5 6 7 7 7 7 7 8 8 8 7 7 8 8 9 9 9 9 9 10 10 9 10 10 19 21 22 21 22 22 17 10 10 10 10 10 10 11
9 9 8 6 7 6 5 5 5 4 4 2 2 2 2 2 2 3 3 4 4 4 4 5 5 6 6 7 7 7 8 8 8 8 8 7 8 7 8 8 8 9 10 10 10 10 10 11 19 21 21 22 21 22 12 10 10 10 10 10 11 11
5 5 6 7 8 8 5 5 4 4 3 2 2 2 2 3 3 4 3 4 4 4 4 5 5 6 6 6 7 7 7 8 8 8 7 8 8 8 8 8 8 9 9 11 10 10 10 10 16 21 22 22 22 17 11 11 10 10 10 10 11 11
4 5 7 8 8 6 5 6 5 4 3 3 2 3 4 3 4 3 4 4 4 3 3 4 5 6 6 6 6 7 7 7 6 7 7 8 9 8 8 9 9 9 9 10 11 10 11 11 15 21 22 22 22 19 12 11 11 11 10 11 11 11
4 5 5 6 7 5 6 6 5 4 4 3 3 3 4 5 5 4 4 4 3 3 3 4 4 5 6 6 7 6 7 8 7 7 7 7 7 8 8 8 8 9 9 9 10 14 13 11 13 20 21 22 21 17 12 11 10 11 11 11 11 11
5 4 6 7 7 5 5 5 4 4 4 4 3 4 6 6 5 4 3 3 3 3 3 4 4 5 5 7 6 7 7 7 7 7 7 7 7 7 8 8 8 9 9 9 9 9 10 11 11 14 23 22 22 22 14 10 10 11 12 12 12 12
7 9 9 7 6 6 5 5 5 5 4 3 3 6 7 5 3 3 3 3 3 3 4 4 4 5 5 5 6 7 7 6 7 7 7 8 7 8 8 9 8 8 9 8 9 9 10 9 11 13 22 23 22 22 18 10 11 11 12 12 12 12
4 3 3 3 6 6 6 5 5 5 4 3 6 8 3 3 4 4 3 4 4 4 4 4 4 4 4 4 4 5 6 6 6 6 7 6 7 9 9 9 8 7 8 8 8 9 10 11 14 12 18 22 22 21 22 13 12 13 13 13 12 13
7 8 7 5 6 6 6 7 6 5 4 6 10 4 3 4 3 3 3 3 4 4 5 5 5 4 4 4 4 5 6 6 5 6 5 6 7 7 8 8 8 8 8 8 7 7 8 9 9 16 14 20 21 21 20 22 17 21 13 12 12 12
6 6 5 5 6 6 7 8 7 6 6 11 6 3 3 3 4 3 3 3 4 4 4 4 3 4 3 3 4 4 5 6 5 6 5 5 5 6 7 7 6 6 7 7 8 7 7 8 8 11 17 16 20 20 22 22 22 20 13 12 11 12
9 7 5 6 7 7 7 7 8 6 8 5 3 4 4 4 4 4 4 4 4 4 4 4 3 4 4 3 3 4 4 5 4 6 5 4 5 6 6 7 5 6 7 7 8 9 8 8 8 9 12 16 16 22 23 22 21 18 20 14 12 12
5 5 7 6 7 8 8 8 8 9 9 3 4 4 5 4 4 4 5 4 4 5 4 4 4 4 4 4 4 4 4 4 5 5 6 5 5 5 6 7 6 6 6 7 8 8 9 9 8 9 7 8 13 15 21 23 19 19 21 20 16 21
7 9 9 9 7 9 8 7 9 10 6 4 4 4 4 4 5 5 4 5 5 4 4 4 5 4 4 3 3 3 4 4 4 5 6 5 6 5 6 6 6 6 6 7 8 9 9 9 8 6 6 9 10 9 8 10 13 17 17 12 9 12
9 10 9 11 9 8 8 8 10 9 8 5 4 4 4 4 5 5 6 6 5 4 3 4 5 5 4 4 3 4 4 4 4 5 6 6 5 5 7 6 6 7 7 9 9 10 10 10 6 6 9 10 9 9 10 11 10 11 10 8 10 9
9 10 9 11 7 6 7 8 8 7 7 7 5 5 5 6 6 5 5 5 3 5 3 4 4 4 4 5 4 4 5 5 5 6 7 7 5 6 7 6 8 9 9 8 8 8 7 7 8 9 14 15 19 16 13 11 10 10 9 13 20 11
9 9 10 10 6 6 7 7 7 7 6 5 5 5 6 6 5 4 6 5 5 5 4 4 4 4 4 4 5 5 6 7 10 9 7 8 10 13 16 14 11 10 8 6 5 6 10 9 10 20 23 22 22 22 23 21 22 21 16 20 19 12
8 7 8 9 5 6 7 6 6 5 6 6 6 7 7 5 5 5 6 4 5 6 5 4 5 5 5 5 4 4 6 8 6 9 14 14 14 14 15 17 19 19 17 12 8 8 17 18 20 21 21 22 22 22 22 22 22 21 21 21 11 8
8 10 12 8 6 7 6 7 6 6 6 6 6 7 7 7 6 7 6 6 5 6 5 4 4 4 5 5 4 5 4 5 8 9 6 8 11 12 14 16 16 16 15 17 16 13 9 14 18 20 21 21 22 22 22 22 20 20 22 18 15 7
9 8 7 6 6 6 7 7 8 6 5 6 6 7 7 7 7 7 6 6 5 5 6 4 5 4 5 5 5 4 3 4 4 7 10 7 7 11 13 13 13 13 15 17 17 18 16 16 18 21 21 21 21 21 21 20 19 20 20 15 9 6
6 7 7 6 7 8 7 8 8 6 7 6 7 7 8 8 8 8 7 6 5 6 5 6 5 5 5 5 5 5 5 5 5 6 5 8 11 9 6 6 8 11 13 14 17 18 16 17 18 19 20 19 20 21 21 17 13 17 15 10 4 6
6 7 7 8 7 7 8 10 8 6 6 6 7 7 7 7 7 6 7 8 6 5 6 5 6 6 5 4 5 5 5 6 5 4 5 5 6 7 9 10 9 8 8 10 12 14 16 16 18 19 19 19 19 20 20 16 10 10 10 9 5 5
7 8 6 6 6 7 8 10 7 5 6 6 7 7 8 7 7 7 6 5 6 7 6 6 6 6 6 6 6 5 5 6 5 6 6 5 5 6 8 8 8 7 9 15 13 13 14 16 18 18 18 17 18 19 17 9 8 8 8 7 7 6
Wind_Direction
78 41 41 31 25 23 16 17 16 15 14 15 20 10 9 4 8 2 360 8 6 2 3 3 4 3 4 359 356 359 356 355 354 351 347 345 346 347 346 341 344 346 344 345 341 344 344 346 345 349 351 346 345 348 347 345 350 348 348 349 353 348
122 77 40 23 24 14 16 11 15 18 12 12 16 8 10 6 10 6 0 4 6 1 3 3 2 1 1 359 356 359 356 354 353 347 349 349 342 345 344 342 345 345 343 343 342 341 342 343 344 343 347 346 346 346 343 342 346 350 348 347 349 346
132 109 79 45 19 24 17 14 14 18 9 11 15 9 8 9 8 5 357 358 2 357 4 359 358 0 358 1 356 2 352 353 351 345 347 341 343 347 341 345 343 344 341 340 342 343 340 343 342 344 344 344 340 342 340 340 346 346 346 346 344 347
151 140 108 56 41 11 27 18 3 11 12 9 9 10 7 8 7 2 353 355 358 355 359 355 357 358 356 1 353 0 352 351 351 342 345 342 342 346 339 343 344 341 340 341 341 339 339 339 340 341 343 342 338 339 345 344 345 344 342 344 342 345
150 149 144 91 37 7 25 3 4 1 9 1 3 13 5 5 1 357 350 345 356 348 356 355 357 356 357 2 356 357 351 348 344 343 344 341 340 341 339 340 340 339 340 340 339 339 338 338 337 339 339 337 333 338 342 343 342 342 340 341 340 340
141 140 148 147 162 340 0 352 346 355 2 355 355 12 1 353 0 354 340 344 354 347 356 355 352 355 357 0 356 352 348 345 342 340 341 338 341 338 337 341 337 338 339 338 337 339 338 337 335 335 336 331 328 337 338 338 339 337 335 334 333 334
173 183 174 170 183 189 293 308 328 355 355 352 359 5 353 335 359 346 346 348 353 347 359 355 356 353 356 357 350 347 344 343 342 339 340 338 339 337 337 338 340 337 339 339 336 335 336 334 331 331 331 327 329 336 335 334 335 333 331 328 327 329
188 179 179 174 177 192 233 281 303 328 342 347 347 8 351 334 9 335 346 339 349 344 354 353 350 349 351 351 349 346 343 339 339 337 337 337 335 334 336 336 336 338 334 335 331 333 329 329 327 328 325 325 333 334 331 331 329 328 326 325 324 323
198 190 187 183 178 190 213 237 294 321 330 334 337 21 347 328 5 333 348 347 349 337 349 349 345 345 342 347 342 337 337 337 336 336 334 336 333 331 335 335 334 333 334 328 330 331 328 326 325 324 322 328 333 331 331 330 328 325 324 319 319 318
194 193 190 181 178 185 193 221 245 289 316 320 326 3 346 335 358 332 344 342 340 335 344 340 335 336 334 338 333 334 333 331 332 331 330 331 332 331 334 332 331 330 330 326 331 328 327 324 320 320 322 328 330 330 329 329 326 324 320 317 316 316
200 193 193 193 169 182 198 198 218 235 277 285 290 17 322 358 345 332 336 339 330 331 337 329 329 330 335 337 334 334 331 331 329 330 329 327 327 330 328 325 329 327 327 328 330 326 325 322 321 319 326 327 327 329 328 326 325 321 319 317 316 314
196 197 195 195 194 189 192 190 197 213 247 281 272 355 310 23 324 329 330 328 322 328 330 326 328 328 339 331 336 331 329 329 327 324 325 326 326 326 322 324 328 326 326 329 326 328 326 319 312 315 322 327 327 329 328 324 321 320 318 317 316 315
202 195 201 202 198 200 193 187 190 198 236 248 194 313 324 6 310 335 320 317 319 325 324 327 328 334 331 333 333 326 329 327 324 323 322 323 326 325 324 328 325 325 328 326 325 323 320 314 308 319 325 326 330 332 328 324 321 319 319 316 316 315
203 203 206 204 200 192 180 173 179 195 222 221 196 278 345 313 306 318 309 311 320 322 323 327 330 330 331 332 325 328 324 321 321 323 322 324 324 325 328 322 317 322 321 322 320 318 314 312 312 321 323 326 330 330 328 323 321 320 319 316 314 312
208 208 206 200 197 187 184 164 169 194 211 180 254 200 299 296 307 299 303 310 320 317 325 329 327 327 327 324 325 321 320 322 323 319 323 325 322 325 320 319 323 318 316 317 316 314 312 309 312 319 322 326 328 328 328 325 324 321 315 313 312 310
209 207 204 197 186 176 162 161 165 186 170 167 226 220 273 298 293 298 304 309 308 314 327 322 324 324 319 323 325 321 320 320 318 317 321 319 321 319 318 318 317 316 318 315 314 312 310 307 308 317 322 325 327 327 329 329 325 317 311 310 310 311
205 190 186 181 168 152 143 160 162 176 161 191 185 252 252 273 286 296 297 301 306 318 319 319 321 319 319 319 322 320 316 317 316 320 321 322 318 319 317 319 319 315 315 315 314 310 305 300 310 319 323 325 327 327 333 329 321 314 307 307 308 307
201 198 193 151 145 149 154 162 158 160 178 167 167 233 268 264 261 282 290 288 295 307 308 317 312 314 315 318 318 319 317 316 318 319 320 319 314 311 310 309 309 311 312 311 309 307 306 302 313 320 322 326 328 330 333 326 319 314 312 310 307 305
199 173 142 156 164 160 157 159 148 153 162 159 207 203 242 261 262 261 270 277 287 291 301 309 311 309 311 315 314 313 312 318 319 318 319 318 313 313 311 310 313 310 310 308 307 307 304 305 314 320 322 325 327 330 329 325 317 314 311 308 307 305
115 135 150 156 166 167 150 154 153 158 171 193 196 209 238 237 244 248 258 264 275 282 294 300 302 301 306 306 305 308 310 311 309 310 316 314 310 311 310 311 309 306 304 305 305 305 308 307 310 317 321 323 325 329 327 322 320 314 314 310 305 303
144 142 140 152 169 170 153 153 154 159 196 200 209 219 241 248 251 236 240 252 261 273 286 287 291 295 296 301 302 306 308 311 311 311 308 301 304 303 303 303 301 302 303 300 303 306 307 304 307 314 318 320 324 327 325 324 320 317 314 310 308 305
122 135 162 179 188 163 160 154 157 183 200 215 200 228 244 245 238 242 240 247 256 256 268 275 282 290 295 298 301 301 300 305 306 302 306 307 304 301 303 300 298 298 298 304 307 306 307 307 304 304 314 320 323 326 328 324 321 319 313 312 310 311
174 184 189 191 175 165 163 155 162 202 211 205 213 241 243 237 228 232 235 247 253 255 256 260 266 278 284 288 291 296 298 296 297 304 305 305 305 303 300 298 299 299 298 301 303 306 306 299 299 300 311 316 322 324 327 322 320 314 310 310 311 311
202 196 205 194 170 171 164 165 183 212 208 211 236 245 233 207 219 222 231 240 246 254 259 262 260 267 274 283 286 292 290 291 295 293 299 301 302 301 299 299 299 297 297 300 303 300 294 293 294 297 303 313 318 322 323 324 316 314 313 313 309 307
208 214 207 191 185 175 176 167 196 213 208 222 243 233 196 210 211 219 225 237 244 251 259 261 264 268 274 278 282 285 283 292 295 294 296 298 297 296 296 299 302 303 302 304 301 292 291 291 291 295 295 303 313 318 322 321 320 317 318 313 313 318
217 220 205 191 189 187 181 179 202 211 213 238 238 205 207 206 218 214 227 235 242 253 256 258 264 265 270 272 280 279 282 288 291 292 292 293 294 294 299 300 303 303 304 307 306 299 285 284 287 284 292 294 307 319 321 321 320 320 320 323 324 315
218 218 213 200 196 199 196 194 199 211 225 242 179 203 198 209 205 212 234 240 245 249 252 264 264 267 267 267 265 276 278 285 291 297 295 293 293 292 292 295 301 300 300 304 301 301 298 295 290 287 289 291 308 316 317 321 321 325 328 324 310 308
228 219 230 223 202 205 202 204 194 207 231 181 175 185 185 193 205 228 241 244 249 248 253 266 269 259 257 262 253 248 257 269 282 284 289 290 285 286 288 291 297 295 298 295 296 296 296 294 291 288 287 307 304 296 295 301 321 329 323 317 308 305
218 228 228 237 212 203 208 207 212 222 228 202 187 180 182 196 213 236 249 253 255 254 245 253 266 277 266 255 258 250 257 258 262 269 277 278 279 281 281 284 290 295 293 292 291 293 293 299 296 297 317 308 289 279 283 317 329 321 318 305 293 303
215 226 225 235 227 200 205 207 217 222 222 222 199 185 181 206 216 232 248 248 245 252 243 249 266 272 284 274 265 274 275 257 244 256 265 270 272 282 285 286 286 285 289 288 288 286 296 299 298 327 314 300 294 313 330 326 322 319 305 310 315 337
217 226 225 236 226 196 204 213 221 215 211 217 200 176 185 216 229 235 249 252 257 260 249 249 254 256 265 276 272 256 244 265 266 259 269 253 230 233 248 267 266 265 263 256 268 277 285 310 328 317 310 315 324 327 328 327 316 312 314 329 336 7
221 227 229 239 219 202 208 217 220 212 208 200 188 171 195 218 230 239 248 241 242 250 248 251 253 251 254 260 277 289 289 254 256 259 260 278 274 268 272 274 276 280 268 254 277 315 323 325 312 313 319 323 327 328 325 323 321 323 333 332 357 27
226 234 240 238 213 210 214 220 216 210 202 192 185 179 202 201 219 236 245 239 243 239 240 239 249 246 244 252 261 276 288 308 290 270 272 273 278 285 287 291 295 303 312 319 321 330 325 317 316 320 322 328 330 327 325 324 325 333 337 340 8 20
224 223 231 231 214 216 214 223 224 212 204 187 186 185 194 196 203 229 239 228 238 240 242 238 242 256 255 259 249 256 280 289 307 308 274 271 283 290 294 299 308 315 320 325 328 331 320 322 321 323 330 332 329 326 325 324 333 341 340 347 18 5
220 225 228 226 218 218 218 223 232 210 201 191 184 179 193 201 206 226 241 233 238 235 238 241 236 246 238 256 264 267 255 271 288 298 312 305 288 289 292 297 302 311 321 325 326 324 323 325 327 330 331 329 326 326 324 331 351 342 342 1 11 342
224 222 221 219 218 218 219 229 233 210 201 187 184 185 197 204 209 219 224 229 228 228 236 232 237 239 245 238 244 246 256 254 251 268 276 304 319 322 304 280 289 305 315 315 319 324 330 327 326 325 325 328 328 327 327 348 354 339 352 6 350 330
221 227 223 219 217 218 223 235 235 206 190 186 183 187 201 209 212 218 229 230 226 216 231 231 228 230 240 238 238 245 250 259 260 256 269 280 291 301 305 312 309 304 302 312 314 316 318 323 325 327 327 330 331 329 339 6 357 347 339 347 345 328
220 228 222 216 219 223 231 243 232 190 188 188 183 188 202 206 210 216 222 229 230 230 225 227 225 225 228 233 242 235 243 245 247 253 262 267 273 278 293 294 289 293 306 307 305 305 316 322 325 324 325 328 331 332 358 358 339 335 329 324 321 318